Location: ?????
(44.4284°N, 135.2222°E)
Time: 01:10:04
(UTC+00:00)

DELTA 2 R/B (1) - Pass Details

Date: 19 May 2025
Orbit: 788 x 799 km, 39.6° (Epoch: 13 June)

Event Time Altitude Azimuth Distance (km) Brightness Sun altitude
Rises 13:49:22 0° 259° (W) 3,275 6.8 -23.9°
Reaches altitude 10° 13:51:53 10° 255° (WSW) 2,348 6.0 -24.0°
Enters shadow 13:55:26 37° 232° (SW) 1,211 4.3 -24.2°
